Year,Month,Day,Hour,Minute,Value (Times are PST for temperature in C)
2014,10,08,00,00,12.30
2014,10,08,00,01,12.30
2014,10,08,00,02,12.30
2014,10,08,00,03,12.30
2014,10,08,00,04,12.30
2014,10,08,00,05,12.30
2014,10,08,00,06,12.30
2014,10,08,00,07,12.30
2014,10,08,00,08,12.30
2014,10,08,00,09,12.20
2014,10,08,00,10,12.20
2014,10,08,00,11,12.10
2014,10,08,00,12,12.10
2014,10,08,00,13,12.10
2014,10,08,00,14,12.10
2014,10,08,00,15,12.00
2014,10,08,00,16,12.00
2014,10,08,00,17,12.00
2014,10,08,00,18,12.00
2014,10,08,00,19,11.90
2014,10,08,00,20,11.90
2014,10,08,00,21,11.90
2014,10,08,00,22,11.90
2014,10,08,00,23,11.90
2014,10,08,00,24,12.00
2014,10,08,00,25,12.00
2014,10,08,00,26,12.00
2014,10,08,00,27,12.00
2014,10,08,00,28,12.00
2014,10,08,00,29,12.00
2014,10,08,00,30,12.00
2014,10,08,00,31,12.00
2014,10,08,00,32,12.00
2014,10,08,00,33,12.00
2014,10,08,00,34,12.00
2014,10,08,00,35,11.90
2014,10,08,00,36,11.90
2014,10,08,00,37,11.90
2014,10,08,00,38,11.90
2014,10,08,00,39,11.90
2014,10,08,00,40,11.90
2014,10,08,00,41,11.90
2014,10,08,00,42,11.90
2014,10,08,00,43,11.90
2014,10,08,00,44,11.90
2014,10,08,00,45,11.90
2014,10,08,00,46,11.90
2014,10,08,00,47,11.90
2014,10,08,00,48,11.90
2014,10,08,00,49,11.80
2014,10,08,00,50,11.80
2014,10,08,00,51,11.80
2014,10,08,00,52,11.80
2014,10,08,00,53,11.80
2014,10,08,00,54,11.80
2014,10,08,00,55,11.80
2014,10,08,00,56,11.80
2014,10,08,00,57,11.80
2014,10,08,00,58,11.80
2014,10,08,00,59,11.80
2014,10,08,01,00,11.80
2014,10,08,01,01,11.80
2014,10,08,01,02,11.80
2014,10,08,01,03,11.80
2014,10,08,01,04,11.80
2014,10,08,01,05,11.80
2014,10,08,01,06,11.80
2014,10,08,01,07,11.70
2014,10,08,01,08,11.70
2014,10,08,01,09,11.70
2014,10,08,01,10,11.70
2014,10,08,01,11,11.70
2014,10,08,01,12,11.60
2014,10,08,01,13,11.60
2014,10,08,01,14,11.60
2014,10,08,01,15,11.60
2014,10,08,01,16,11.60
2014,10,08,01,17,11.60
2014,10,08,01,18,11.60
2014,10,08,01,19,11.60
2014,10,08,01,20,11.60
2014,10,08,01,21,11.60
2014,10,08,01,22,11.60
2014,10,08,01,23,11.60
2014,10,08,01,24,11.60
2014,10,08,01,25,11.60
2014,10,08,01,26,11.60
2014,10,08,01,27,11.60
2014,10,08,01,28,11.60
2014,10,08,01,29,11.60
2014,10,08,01,30,11.60
2014,10,08,01,31,11.70
2014,10,08,01,32,11.70
2014,10,08,01,33,11.70
2014,10,08,01,34,11.70
2014,10,08,01,35,11.80
2014,10,08,01,36,11.80
2014,10,08,01,37,11.80
2014,10,08,01,38,11.80
2014,10,08,01,39,11.80
2014,10,08,01,40,11.80
2014,10,08,01,41,11.80
2014,10,08,01,42,11.80
2014,10,08,01,43,11.80
2014,10,08,01,44,11.70
2014,10,08,01,45,11.70
2014,10,08,01,46,11.70
2014,10,08,01,47,11.70
2014,10,08,01,48,11.70
2014,10,08,01,49,11.60
2014,10,08,01,50,11.60
2014,10,08,01,51,11.60
2014,10,08,01,52,11.60
2014,10,08,01,53,11.60
2014,10,08,01,54,11.70
2014,10,08,01,55,11.70
2014,10,08,01,56,11.70
2014,10,08,01,57,11.70
2014,10,08,01,58,11.70
2014,10,08,01,59,11.70
2014,10,08,02,00,11.70
2014,10,08,02,01,11.70
2014,10,08,02,02,11.70
2014,10,08,02,03,11.70
2014,10,08,02,04,11.70
2014,10,08,02,05,11.70
2014,10,08,02,06,11.70
2014,10,08,02,07,11.70
2014,10,08,02,08,11.70
2014,10,08,02,09,11.70
2014,10,08,02,10,11.70
2014,10,08,02,11,11.70
2014,10,08,02,12,11.70
2014,10,08,02,13,11.70
2014,10,08,02,14,11.70
2014,10,08,02,15,11.70
2014,10,08,02,16,11.70
2014,10,08,02,17,11.60
2014,10,08,02,18,11.60
2014,10,08,02,19,11.60
2014,10,08,02,20,11.70
2014,10,08,02,21,11.70
2014,10,08,02,22,11.70
2014,10,08,02,23,11.70
2014,10,08,02,24,11.70
2014,10,08,02,25,11.70
2014,10,08,02,26,11.70
2014,10,08,02,27,11.70
2014,10,08,02,28,11.70
2014,10,08,02,29,11.70
2014,10,08,02,30,11.70
2014,10,08,02,31,11.70
2014,10,08,02,32,11.70
2014,10,08,02,33,11.70
2014,10,08,02,34,11.70
2014,10,08,02,35,11.70
2014,10,08,02,36,11.70
2014,10,08,02,37,11.70
2014,10,08,02,38,11.70
2014,10,08,02,39,11.70
2014,10,08,02,40,11.70
2014,10,08,02,41,11.70
2014,10,08,02,42,11.70
2014,10,08,02,43,11.60
2014,10,08,02,44,11.70
2014,10,08,02,45,11.60
2014,10,08,02,46,11.60
2014,10,08,02,47,11.60
2014,10,08,02,48,11.60
2014,10,08,02,49,11.60
2014,10,08,02,50,11.60
2014,10,08,02,51,11.60
2014,10,08,02,52,11.60
2014,10,08,02,53,11.60
2014,10,08,02,54,11.60
2014,10,08,02,55,11.60
2014,10,08,02,56,11.60
2014,10,08,02,57,11.60
2014,10,08,02,58,11.60
2014,10,08,02,59,11.60
2014,10,08,03,00,11.60
2014,10,08,03,01,11.60
2014,10,08,03,02,11.60
2014,10,08,03,03,11.60
2014,10,08,03,04,11.60
2014,10,08,03,05,11.60
2014,10,08,03,06,11.60
2014,10,08,03,07,11.60
2014,10,08,03,08,11.70
2014,10,08,03,09,11.70
2014,10,08,03,10,11.70
2014,10,08,03,11,11.70
2014,10,08,03,12,11.70
2014,10,08,03,13,11.70
2014,10,08,03,14,11.70
2014,10,08,03,15,11.70
2014,10,08,03,16,11.70
2014,10,08,03,17,11.70
2014,10,08,03,18,11.80
2014,10,08,03,19,11.80
2014,10,08,03,20,11.80
2014,10,08,03,21,11.90
2014,10,08,03,22,12.00
2014,10,08,03,23,12.10
2014,10,08,03,24,12.10
2014,10,08,03,25,12.10
2014,10,08,03,26,12.10
2014,10,08,03,27,12.00
2014,10,08,03,28,12.00
2014,10,08,03,29,12.00
2014,10,08,03,30,11.90
2014,10,08,03,31,11.90
2014,10,08,03,32,11.90
2014,10,08,03,33,11.90
2014,10,08,03,34,11.90
2014,10,08,03,35,11.80
2014,10,08,03,36,11.80
2014,10,08,03,37,11.80
2014,10,08,03,38,11.80
2014,10,08,03,39,11.80
2014,10,08,03,40,11.70
2014,10,08,03,41,11.70
2014,10,08,03,42,11.70
2014,10,08,03,43,11.70
2014,10,08,03,44,11.70
2014,10,08,03,45,11.70
2014,10,08,03,46,11.70
2014,10,08,03,47,11.70
2014,10,08,03,48,11.80
2014,10,08,03,49,11.70
2014,10,08,03,50,11.70
2014,10,08,03,51,11.70
2014,10,08,03,52,11.60
2014,10,08,03,53,11.60
2014,10,08,03,54,11.60
2014,10,08,03,55,11.60
2014,10,08,03,56,11.60
2014,10,08,03,57,11.60
2014,10,08,03,58,11.70
2014,10,08,03,59,11.70
2014,10,08,04,00,11.70
2014,10,08,04,01,11.70
2014,10,08,04,02,11.70
2014,10,08,04,03,11.70
2014,10,08,04,04,11.70
2014,10,08,04,05,11.70
2014,10,08,04,06,11.70
2014,10,08,04,07,11.80
2014,10,08,04,08,12.80
2014,10,08,04,09,12.80
2014,10,08,04,10,12.80
2014,10,08,04,11,12.80
2014,10,08,04,12,12.80
2014,10,08,04,13,12.80
2014,10,08,04,14,12.80
2014,10,08,04,15,12.80
2014,10,08,04,16,12.80
2014,10,08,04,17,12.80
2014,10,08,04,18,12.80
2014,10,08,04,19,12.80
2014,10,08,04,20,12.80
2014,10,08,04,21,12.80
2014,10,08,04,22,12.80
2014,10,08,04,23,12.80
2014,10,08,04,24,12.80
2014,10,08,04,25,12.80
2014,10,08,04,26,12.80
2014,10,08,04,27,12.80
2014,10,08,04,28,12.80
2014,10,08,04,29,12.80
2014,10,08,04,30,12.80
2014,10,08,04,31,12.80
2014,10,08,04,32,12.80
2014,10,08,04,33,12.80
2014,10,08,04,34,12.80
2014,10,08,04,35,12.80
2014,10,08,04,36,12.80
2014,10,08,04,37,12.80
2014,10,08,04,38,12.80
2014,10,08,04,39,12.80
2014,10,08,04,40,12.80
2014,10,08,04,41,12.80
2014,10,08,04,42,12.80
2014,10,08,04,43,12.80
2014,10,08,04,44,12.80
2014,10,08,04,45,12.80
2014,10,08,04,46,12.80
2014,10,08,04,47,12.80
2014,10,08,04,48,12.80
2014,10,08,04,49,12.80
2014,10,08,04,50,12.80
2014,10,08,04,51,12.80
2014,10,08,04,52,12.80
2014,10,08,04,53,12.80
2014,10,08,04,54,12.80
2014,10,08,04,55,12.80
2014,10,08,04,56,12.80
2014,10,08,04,57,12.80
2014,10,08,04,58,12.80
2014,10,08,04,59,12.80
2014,10,08,05,00,12.80
2014,10,08,05,01,12.80
2014,10,08,05,02,12.80
2014,10,08,05,03,12.80
2014,10,08,05,04,12.80
2014,10,08,05,05,12.80
2014,10,08,05,06,12.80
2014,10,08,05,07,12.80
2014,10,08,05,08,12.80
2014,10,08,05,09,12.80
2014,10,08,05,10,12.80
2014,10,08,05,11,12.80
2014,10,08,05,12,12.80
2014,10,08,05,13,12.80
2014,10,08,05,14,12.80
2014,10,08,05,15,12.80
2014,10,08,05,16,12.80
2014,10,08,05,17,12.80
2014,10,08,05,18,12.80
2014,10,08,05,19,12.80
2014,10,08,05,20,12.80
2014,10,08,05,21,12.80
2014,10,08,05,22,12.80
2014,10,08,05,23,12.80
2014,10,08,05,24,12.80
2014,10,08,05,25,12.80
2014,10,08,05,26,12.80
2014,10,08,05,27,12.80
2014,10,08,05,28,12.80
2014,10,08,05,29,12.80
2014,10,08,05,30,12.80
2014,10,08,05,31,12.80
2014,10,08,05,32,12.80
2014,10,08,05,33,12.80
2014,10,08,05,34,12.80
2014,10,08,05,35,12.80
2014,10,08,05,36,12.80
2014,10,08,05,37,12.80
2014,10,08,05,38,12.80
2014,10,08,05,39,12.80
2014,10,08,05,40,12.80
2014,10,08,05,41,12.80
2014,10,08,05,42,12.80
2014,10,08,05,43,12.80
2014,10,08,05,44,12.80
2014,10,08,05,45,12.80
2014,10,08,05,46,12.80
2014,10,08,05,47,12.80
2014,10,08,05,48,12.80
2014,10,08,05,49,12.80
2014,10,08,05,50,12.80
2014,10,08,05,51,12.80
2014,10,08,05,52,12.80
2014,10,08,05,53,12.80
2014,10,08,05,54,12.80
2014,10,08,05,55,12.80
2014,10,08,05,56,12.80
2014,10,08,05,57,12.80
2014,10,08,05,58,12.80
2014,10,08,05,59,12.80
2014,10,08,06,00,12.80
2014,10,08,06,01,12.80
2014,10,08,06,02,12.80
2014,10,08,06,03,12.80
2014,10,08,06,04,12.80
2014,10,08,06,05,12.80
2014,10,08,06,06,12.80
2014,10,08,06,07,12.80
2014,10,08,06,08,12.80
2014,10,08,06,09,12.80
2014,10,08,06,10,12.80
2014,10,08,06,11,12.80
2014,10,08,06,12,12.80
2014,10,08,06,13,12.80
2014,10,08,06,14,12.80
2014,10,08,06,15,12.80
2014,10,08,06,16,12.80
2014,10,08,06,17,12.80
2014,10,08,06,18,12.80
2014,10,08,06,19,12.80
2014,10,08,06,20,12.80
2014,10,08,06,21,12.80
2014,10,08,06,22,12.70
2014,10,08,06,23,12.70
2014,10,08,06,24,12.70
2014,10,08,06,25,12.70
2014,10,08,06,26,12.70
2014,10,08,06,27,12.70
2014,10,08,06,28,12.70
2014,10,08,06,29,12.70
2014,10,08,06,30,12.70
2014,10,08,06,31,12.70
2014,10,08,06,32,12.70
2014,10,08,06,33,12.70
2014,10,08,06,34,12.70
2014,10,08,06,35,12.70
2014,10,08,06,36,12.70
2014,10,08,06,37,12.70
2014,10,08,06,38,12.70
2014,10,08,06,39,12.70
2014,10,08,06,40,12.70
2014,10,08,06,41,12.70
2014,10,08,06,42,12.70
2014,10,08,06,43,12.70
2014,10,08,06,44,12.70
2014,10,08,06,45,12.70
2014,10,08,06,46,12.70
2014,10,08,06,47,12.70
2014,10,08,06,48,12.70
2014,10,08,06,49,12.80
2014,10,08,06,50,12.80
2014,10,08,06,51,12.80
2014,10,08,06,52,12.80
2014,10,08,06,53,12.80
2014,10,08,06,54,12.80
2014,10,08,06,55,12.80
2014,10,08,06,56,12.80
2014,10,08,06,57,12.80
2014,10,08,06,58,12.80
2014,10,08,06,59,12.80
2014,10,08,07,00,12.80
2014,10,08,07,01,12.80
2014,10,08,07,02,12.80
2014,10,08,07,03,12.80
2014,10,08,07,04,12.80
2014,10,08,07,05,12.80
2014,10,08,07,06,12.80
2014,10,08,07,07,12.80
2014,10,08,07,08,12.80
2014,10,08,07,09,12.80
2014,10,08,07,10,12.80
2014,10,08,07,11,12.80
2014,10,08,07,12,12.80
2014,10,08,07,13,12.90
2014,10,08,07,14,12.90
2014,10,08,07,15,12.90
2014,10,08,07,16,12.90
2014,10,08,07,17,12.90
2014,10,08,07,18,12.90
2014,10,08,07,19,12.90
2014,10,08,07,20,12.90
2014,10,08,07,21,12.90
2014,10,08,07,22,12.90
2014,10,08,07,23,12.90
2014,10,08,07,24,12.90
2014,10,08,07,25,12.90
2014,10,08,07,26,12.90
2014,10,08,07,27,13.00
2014,10,08,07,28,13.00
2014,10,08,07,29,13.00
2014,10,08,07,30,13.00
2014,10,08,07,31,13.00
2014,10,08,07,32,13.00
2014,10,08,07,33,13.00
2014,10,08,07,34,13.00
2014,10,08,07,35,13.00
2014,10,08,07,36,13.00
2014,10,08,07,37,13.00
2014,10,08,07,38,13.00
2014,10,08,07,39,13.10
2014,10,08,07,40,13.10
2014,10,08,07,41,13.10
2014,10,08,07,42,13.10
2014,10,08,07,43,13.10
2014,10,08,07,44,13.10
2014,10,08,07,45,13.10
2014,10,08,07,46,13.10
2014,10,08,07,47,13.10
2014,10,08,07,48,13.10
2014,10,08,07,49,13.10
2014,10,08,07,50,13.10
2014,10,08,07,51,13.10
2014,10,08,07,52,13.10
2014,10,08,07,53,13.10
2014,10,08,07,54,13.10
2014,10,08,07,55,13.10
2014,10,08,07,56,13.10
2014,10,08,07,57,13.10
2014,10,08,07,58,13.10
2014,10,08,07,59,13.10
2014,10,08,08,00,13.20
2014,10,08,08,01,13.20
2014,10,08,08,02,13.20
2014,10,08,08,03,13.20
2014,10,08,08,04,13.20
2014,10,08,08,05,13.20
2014,10,08,08,06,13.20
2014,10,08,08,07,13.20
2014,10,08,08,08,13.20
2014,10,08,08,09,13.20
2014,10,08,08,10,13.20
2014,10,08,08,11,13.20
2014,10,08,08,12,13.30
2014,10,08,08,13,13.30
2014,10,08,08,14,13.30
2014,10,08,08,15,13.30
2014,10,08,08,16,13.30
2014,10,08,08,17,13.30
2014,10,08,08,18,13.30
2014,10,08,08,19,13.30
2014,10,08,08,20,13.30
2014,10,08,08,21,13.30
2014,10,08,08,22,13.30
2014,10,08,08,23,13.30
2014,10,08,08,24,13.40
2014,10,08,08,25,13.40
2014,10,08,08,26,13.40
2014,10,08,08,27,13.40
2014,10,08,08,28,13.40
2014,10,08,08,29,13.40
2014,10,08,08,30,13.40
2014,10,08,08,31,13.40
2014,10,08,08,32,13.40
2014,10,08,08,33,13.40
2014,10,08,08,34,13.40
2014,10,08,08,35,13.40
2014,10,08,08,36,13.40
2014,10,08,08,37,13.40
2014,10,08,08,38,13.40
2014,10,08,08,39,13.50
2014,10,08,08,40,13.50
2014,10,08,08,41,13.50
2014,10,08,08,42,13.50
2014,10,08,08,43,13.50
2014,10,08,08,44,13.50
2014,10,08,08,45,13.50
2014,10,08,08,46,13.50
2014,10,08,08,47,13.60
2014,10,08,08,48,13.60
2014,10,08,08,49,13.60
2014,10,08,08,50,13.60
2014,10,08,08,51,13.60
2014,10,08,08,52,13.60
2014,10,08,08,53,13.60
2014,10,08,08,54,13.60
2014,10,08,08,55,13.60
2014,10,08,08,56,13.60
2014,10,08,08,57,13.60
2014,10,08,08,58,13.60
2014,10,08,08,59,13.70
2014,10,08,09,00,13.70
2014,10,08,09,01,13.70
2014,10,08,09,02,13.70
2014,10,08,09,03,13.70
2014,10,08,09,04,13.70
2014,10,08,09,05,13.70
2014,10,08,09,06,13.70
2014,10,08,09,07,13.70
2014,10,08,09,08,13.70
2014,10,08,09,09,13.70
2014,10,08,09,10,13.70
2014,10,08,09,11,13.70
2014,10,08,09,12,13.80
2014,10,08,09,13,13.80
2014,10,08,09,14,13.80
2014,10,08,09,15,13.80
2014,10,08,09,16,13.80
2014,10,08,09,17,13.80
2014,10,08,09,18,13.80
2014,10,08,09,19,13.80
2014,10,08,09,20,13.80
2014,10,08,09,21,13.90
2014,10,08,09,22,13.90
2014,10,08,09,23,13.90
2014,10,08,09,24,13.90
2014,10,08,09,25,13.90
2014,10,08,09,26,13.90
2014,10,08,09,27,14.00
2014,10,08,09,28,14.00
2014,10,08,09,29,14.00
2014,10,08,09,30,14.00
2014,10,08,09,31,14.00
2014,10,08,09,32,14.10
2014,10,08,09,33,14.10
2014,10,08,09,34,14.10
2014,10,08,09,35,14.10
2014,10,08,09,36,14.10
2014,10,08,09,37,14.10
2014,10,08,09,38,14.10
2014,10,08,09,39,14.10
2014,10,08,09,40,14.10
2014,10,08,09,41,14.20
2014,10,08,09,42,14.20
2014,10,08,09,43,14.20
2014,10,08,09,44,14.20
2014,10,08,09,45,14.20
2014,10,08,09,46,14.20
2014,10,08,09,47,14.20
2014,10,08,09,48,14.30
2014,10,08,09,49,14.30
2014,10,08,09,50,14.30
2014,10,08,09,51,14.30
2014,10,08,09,52,14.30
2014,10,08,09,53,14.40
2014,10,08,09,54,14.40
2014,10,08,09,55,14.40
2014,10,08,09,56,14.40
2014,10,08,09,57,14.40
2014,10,08,09,58,14.40
2014,10,08,09,59,14.40
2014,10,08,10,00,14.50
2014,10,08,10,01,14.50
2014,10,08,10,02,14.50
2014,10,08,10,03,14.50
2014,10,08,10,04,14.60
2014,10,08,10,05,14.60
2014,10,08,10,06,14.60
2014,10,08,10,07,14.60
2014,10,08,10,08,14.60
2014,10,08,10,09,14.60
2014,10,08,10,10,14.60
2014,10,08,10,11,14.60
2014,10,08,10,12,14.60
2014,10,08,10,13,14.70
2014,10,08,10,14,14.70
2014,10,08,10,15,14.70
2014,10,08,10,16,14.70
2014,10,08,10,17,14.70
2014,10,08,10,18,14.70
2014,10,08,10,19,14.70
2014,10,08,10,20,14.70
2014,10,08,10,21,14.80
2014,10,08,10,22,14.80
2014,10,08,10,23,14.80
2014,10,08,10,24,14.80
2014,10,08,10,25,14.80
2014,10,08,10,26,14.80
2014,10,08,10,27,14.80
2014,10,08,10,28,14.90
2014,10,08,10,29,14.90
2014,10,08,10,30,14.90
2014,10,08,10,31,14.90
2014,10,08,10,32,14.90
2014,10,08,10,33,15.00
2014,10,08,10,34,15.00
2014,10,08,10,35,15.00
2014,10,08,10,36,15.00
2014,10,08,10,37,15.00
2014,10,08,10,38,15.00
2014,10,08,10,39,15.00
2014,10,08,10,40,15.00
2014,10,08,10,41,15.00
2014,10,08,10,42,15.00
2014,10,08,10,43,15.00
2014,10,08,10,44,15.00
2014,10,08,10,45,15.00
2014,10,08,10,46,15.00
2014,10,08,10,47,15.00
2014,10,08,10,48,15.00
2014,10,08,10,49,15.00
2014,10,08,10,50,15.00
2014,10,08,10,51,15.00
2014,10,08,10,52,15.00
2014,10,08,10,53,15.00
2014,10,08,10,54,15.00
2014,10,08,10,55,15.00
2014,10,08,10,56,15.00
2014,10,08,10,57,15.00
2014,10,08,10,58,15.00
2014,10,08,10,59,15.00
2014,10,08,11,00,15.00
2014,10,08,11,01,15.00
2014,10,08,11,02,15.00
2014,10,08,11,03,15.00
2014,10,08,11,04,15.00
2014,10,08,11,05,15.00
2014,10,08,11,06,15.00
2014,10,08,11,07,15.00
2014,10,08,11,08,15.00
2014,10,08,11,09,15.00
2014,10,08,11,10,15.00
2014,10,08,11,11,15.00
2014,10,08,11,12,15.00
2014,10,08,11,13,15.00
2014,10,08,11,14,15.10
2014,10,08,11,15,15.10
2014,10,08,11,16,15.10
2014,10,08,11,17,15.10
2014,10,08,11,18,15.10
2014,10,08,11,19,15.10
2014,10,08,11,20,15.10
2014,10,08,11,21,15.10
2014,10,08,11,22,15.20
2014,10,08,11,23,15.20
2014,10,08,11,24,15.20
2014,10,08,11,25,15.20
2014,10,08,11,26,15.20
2014,10,08,11,27,15.20
2014,10,08,11,28,15.20
2014,10,08,11,29,15.20
2014,10,08,11,30,15.30
2014,10,08,11,31,15.30
2014,10,08,11,32,15.30
2014,10,08,11,33,15.30
2014,10,08,11,34,15.30
2014,10,08,11,35,15.30
2014,10,08,11,36,15.30
2014,10,08,11,37,15.30
2014,10,08,11,38,15.30
2014,10,08,11,39,15.40
2014,10,08,11,40,15.40
2014,10,08,11,41,15.40
2014,10,08,11,42,15.40
2014,10,08,11,43,15.40
2014,10,08,11,44,15.40
2014,10,08,11,45,15.40
2014,10,08,11,46,15.40
2014,10,08,11,47,15.50
2014,10,08,11,48,15.50
2014,10,08,11,49,15.50
2014,10,08,11,50,15.50
2014,10,08,11,51,15.60
2014,10,08,11,52,15.60
2014,10,08,11,53,15.60
2014,10,08,11,54,15.60
2014,10,08,11,55,15.60
2014,10,08,11,56,15.60
2014,10,08,11,57,15.70
2014,10,08,11,58,15.70
2014,10,08,11,59,15.70
2014,10,08,12,00,15.70
2014,10,08,12,01,15.70
2014,10,08,12,02,15.70
2014,10,08,12,03,15.80
2014,10,08,12,04,15.80
2014,10,08,12,05,15.80
2014,10,08,12,06,15.80
2014,10,08,12,07,15.80
2014,10,08,12,08,15.80
2014,10,08,12,09,15.80
2014,10,08,12,10,15.80
2014,10,08,12,11,15.80
2014,10,08,12,12,15.80
2014,10,08,12,13,15.80
2014,10,08,12,14,15.90
2014,10,08,12,15,15.90
2014,10,08,12,16,15.90
2014,10,08,12,17,15.90
2014,10,08,12,18,15.90
2014,10,08,12,19,15.90
2014,10,08,12,20,15.90
2014,10,08,12,21,15.90
2014,10,08,12,22,15.90
2014,10,08,12,23,15.90
2014,10,08,12,24,15.90
2014,10,08,12,25,15.90
2014,10,08,12,26,15.90
2014,10,08,12,27,15.90
2014,10,08,12,28,15.90
2014,10,08,12,29,15.90
2014,10,08,12,30,15.90
2014,10,08,12,31,15.90
2014,10,08,12,32,15.90
2014,10,08,12,33,15.90
2014,10,08,12,34,15.90
2014,10,08,12,35,16.00
2014,10,08,12,36,16.00
2014,10,08,12,37,16.00
2014,10,08,12,38,16.00
2014,10,08,12,39,16.00
2014,10,08,12,40,16.10
2014,10,08,12,41,16.10
2014,10,08,12,42,16.10
2014,10,08,12,43,16.10
2014,10,08,12,44,16.10
2014,10,08,12,45,16.10
2014,10,08,12,46,16.10
2014,10,08,12,47,16.10
2014,10,08,12,48,16.10
2014,10,08,12,49,16.10
2014,10,08,12,50,16.10
2014,10,08,12,51,16.10
2014,10,08,12,52,16.10
2014,10,08,12,53,16.10
2014,10,08,12,54,16.10
2014,10,08,12,55,16.20
2014,10,08,12,56,16.20
2014,10,08,12,57,16.20
2014,10,08,12,58,16.20
2014,10,08,12,59,16.20
2014,10,08,13,00,16.20
2014,10,08,13,01,16.20
2014,10,08,13,02,16.20
2014,10,08,13,03,16.20
2014,10,08,13,04,16.20
2014,10,08,13,05,16.30
2014,10,08,13,06,16.30
2014,10,08,13,07,16.30
2014,10,08,13,08,16.30
2014,10,08,13,09,16.30
2014,10,08,13,10,16.30
2014,10,08,13,11,16.30
2014,10,08,13,12,16.40
2014,10,08,13,13,16.40
2014,10,08,13,14,16.40
2014,10,08,13,15,16.40
2014,10,08,13,16,16.40
2014,10,08,13,17,16.50
2014,10,08,13,18,16.50
2014,10,08,13,19,16.50
2014,10,08,13,20,16.50
2014,10,08,13,21,16.60
2014,10,08,13,22,16.60
2014,10,08,13,23,16.60
2014,10,08,13,24,16.70
2014,10,08,13,25,16.70
2014,10,08,13,26,16.70
2014,10,08,13,27,16.80
2014,10,08,13,28,16.80
2014,10,08,13,29,16.80
2014,10,08,13,30,16.90
2014,10,08,13,31,16.90
2014,10,08,13,32,16.90
2014,10,08,13,33,17.00
2014,10,08,13,34,17.00
2014,10,08,13,35,17.00
2014,10,08,13,36,17.10
2014,10,08,13,37,17.10
2014,10,08,13,38,17.10
2014,10,08,13,39,17.10
2014,10,08,13,40,17.10
2014,10,08,13,41,17.10
2014,10,08,13,42,17.10
2014,10,08,13,43,17.20
2014,10,08,13,44,17.20
2014,10,08,13,45,17.20
2014,10,08,13,46,17.20
2014,10,08,13,47,17.20
2014,10,08,13,48,17.20
2014,10,08,13,49,17.20
2014,10,08,13,50,17.20
2014,10,08,13,51,17.20
2014,10,08,13,52,17.30
2014,10,08,13,53,17.30
2014,10,08,13,54,17.30
2014,10,08,13,55,17.30
2014,10,08,13,56,17.30
2014,10,08,13,57,17.30
2014,10,08,13,58,17.30
2014,10,08,13,59,17.30
2014,10,08,14,00,17.30
2014,10,08,14,01,17.30
2014,10,08,14,02,17.30
2014,10,08,14,03,17.30
2014,10,08,14,04,17.30
2014,10,08,14,05,17.30
2014,10,08,14,06,17.40
2014,10,08,14,07,17.40
2014,10,08,14,08,17.40
2014,10,08,14,09,17.40
2014,10,08,14,10,17.40
2014,10,08,14,11,17.40
2014,10,08,14,12,17.40
2014,10,08,14,13,17.40
2014,10,08,14,14,17.40
2014,10,08,14,15,17.40
2014,10,08,14,16,17.40
2014,10,08,14,17,17.50
2014,10,08,14,18,17.50
2014,10,08,14,19,17.50
2014,10,08,14,20,17.50
2014,10,08,14,21,17.50
2014,10,08,14,22,17.50
2014,10,08,14,23,17.50
2014,10,08,14,24,17.60
2014,10,08,14,25,17.60
2014,10,08,14,26,17.60
2014,10,08,14,27,17.60
2014,10,08,14,28,17.60
2014,10,08,14,29,17.60
2014,10,08,14,30,17.60
2014,10,08,14,31,17.60
2014,10,08,14,32,17.60
2014,10,08,14,33,17.60
2014,10,08,14,34,17.60
2014,10,08,14,35,17.60
2014,10,08,14,36,17.70
2014,10,08,14,37,17.70
2014,10,08,14,38,17.70
2014,10,08,14,39,17.70
2014,10,08,14,40,17.70
2014,10,08,14,41,17.70
2014,10,08,14,42,17.70
2014,10,08,14,43,17.70
2014,10,08,14,44,17.70
2014,10,08,14,45,17.70
2014,10,08,14,46,17.80
2014,10,08,14,47,17.80
2014,10,08,14,48,17.80
2014,10,08,14,49,17.80
2014,10,08,14,50,17.80
2014,10,08,14,51,17.80
2014,10,08,14,52,17.80
2014,10,08,14,53,17.80
2014,10,08,14,54,17.80
2014,10,08,14,55,17.80
2014,10,08,14,56,17.80
2014,10,08,14,57,17.80
2014,10,08,14,58,17.90
2014,10,08,14,59,17.90
2014,10,08,15,00,17.90
2014,10,08,15,01,17.90
2014,10,08,15,02,17.90
2014,10,08,15,03,18.00
2014,10,08,15,04,18.00
2014,10,08,15,05,18.00
2014,10,08,15,06,18.00
2014,10,08,15,07,18.10
2014,10,08,15,08,18.10
2014,10,08,15,09,18.10
2014,10,08,15,10,18.10
2014,10,08,15,11,18.10
2014,10,08,15,12,18.20
2014,10,08,15,13,18.20
2014,10,08,15,14,18.20
2014,10,08,15,15,18.20
2014,10,08,15,16,18.30
2014,10,08,15,17,18.30
2014,10,08,15,18,18.30
2014,10,08,15,19,18.30
2014,10,08,15,20,18.30
2014,10,08,15,21,18.30
2014,10,08,15,22,18.40
2014,10,08,15,23,18.40
2014,10,08,15,24,18.40
2014,10,08,15,25,18.40
2014,10,08,15,26,18.50
2014,10,08,15,27,18.50
2014,10,08,15,28,18.50
2014,10,08,15,29,18.50
2014,10,08,15,30,18.60
2014,10,08,15,31,18.60
2014,10,08,15,32,18.60
2014,10,08,15,33,18.60
2014,10,08,15,34,18.60
2014,10,08,15,35,18.70
2014,10,08,15,36,18.70
2014,10,08,15,37,18.70
2014,10,08,15,38,18.80
2014,10,08,15,39,18.80
2014,10,08,15,40,18.80
2014,10,08,15,41,18.80
2014,10,08,15,42,18.90
2014,10,08,15,43,18.90
2014,10,08,15,44,18.90
2014,10,08,15,45,18.90
2014,10,08,15,46,19.00
2014,10,08,15,47,19.00
2014,10,08,15,48,19.00
2014,10,08,15,49,19.10
2014,10,08,15,50,19.10
2014,10,08,15,51,19.10
2014,10,08,15,52,19.10
2014,10,08,15,53,19.10
2014,10,08,15,54,19.10
2014,10,08,15,55,19.10
2014,10,08,15,56,19.10
2014,10,08,15,57,19.10
2014,10,08,15,58,19.00
2014,10,08,15,59,19.00
2014,10,08,16,00,19.00
2014,10,08,16,01,19.00
2014,10,08,16,02,19.00
2014,10,08,16,03,19.00
2014,10,08,16,04,19.10
2014,10,08,16,05,19.10
2014,10,08,16,06,19.10
2014,10,08,16,07,19.20
2014,10,08,16,08,19.20
2014,10,08,16,09,19.20
2014,10,08,16,10,19.20
2014,10,08,16,11,19.20
2014,10,08,16,12,19.30
2014,10,08,16,13,19.30
2014,10,08,16,14,19.30
2014,10,08,16,15,19.30
2014,10,08,16,16,19.30
2014,10,08,16,17,19.20
2014,10,08,16,18,19.20
2014,10,08,16,19,19.20
2014,10,08,16,20,19.20
2014,10,08,16,21,19.20
2014,10,08,16,22,19.20
2014,10,08,16,23,19.20
2014,10,08,16,24,19.20
2014,10,08,16,25,19.20
2014,10,08,16,26,19.20
2014,10,08,16,27,19.20
2014,10,08,16,28,19.30
2014,10,08,16,29,19.30
2014,10,08,16,30,19.30
2014,10,08,16,31,19.30
2014,10,08,16,32,19.30
2014,10,08,16,33,19.30
2014,10,08,16,34,19.30
2014,10,08,16,35,19.30
2014,10,08,16,36,19.30
2014,10,08,16,37,19.30
2014,10,08,16,38,19.30
2014,10,08,16,39,19.30
2014,10,08,16,40,19.30
2014,10,08,16,41,19.20
2014,10,08,16,42,19.20
2014,10,08,16,43,19.20
2014,10,08,16,44,19.10
2014,10,08,16,45,19.10
2014,10,08,16,46,19.00
2014,10,08,16,47,19.00
2014,10,08,16,48,18.90
2014,10,08,16,49,18.90
2014,10,08,16,50,18.90
2014,10,08,16,51,18.90
2014,10,08,16,52,18.90
2014,10,08,16,53,18.80
2014,10,08,16,54,18.80
2014,10,08,16,55,18.80
2014,10,08,16,56,18.80
2014,10,08,16,57,18.80
2014,10,08,16,58,18.80
2014,10,08,16,59,18.90
2014,10,08,17,00,18.90
2014,10,08,17,01,18.90
2014,10,08,17,02,18.90
2014,10,08,17,03,18.90
2014,10,08,17,04,18.90
2014,10,08,17,05,18.90
2014,10,08,17,06,18.90
2014,10,08,17,07,18.90
2014,10,08,17,08,18.90
2014,10,08,17,09,18.90
2014,10,08,17,10,18.90
2014,10,08,17,11,18.90
2014,10,08,17,12,18.90
2014,10,08,17,13,19.00
2014,10,08,17,14,19.00
2014,10,08,17,15,19.00
2014,10,08,17,16,19.00
2014,10,08,17,17,19.00
2014,10,08,17,18,19.00
2014,10,08,17,19,19.00